Regional Weather Roundup
Issued by NWS

Home | Current Version | Previous Version | Graphics & Text | Print | Product List | Glossary On
Versions: 1 2 3 4 5 6 7 8 9 10 11 12 13 14 15 16 17 18 19 20 21 22 23 24 25 26 27 28 29 30 31 32 33 34 35 36 37 38 39 40 41 42 43 44 45 46 47 48 49 50
000
ASUS43 KDMX 291107
RWRIA

WEATHER ROUNDUP FOR IOWA
NATIONAL WEATHER SERVICE DES MOINES IA
600 AM CDT FRI AUG 29 2014

NOTE: "FAIR" INDICATES FEW OR NO CLOUDS BELOW 12,000 FEET WITH NO
SIGNIFICANT WEATHER AND/OR OBSTRUCTIONS TO VISIBILITY.

* - THESE STATIONS ARE NOT NWS STATIONS...THUS NOT UNDER NWS
QUALITY CONTROL.  THEY ALSO DO NOT REPORT WEATHER SUCH
AS PRECIPITATION OR FOG.

IAZ001>003-012>014-020>022-031>034-043>046-291200-
   NORTHWEST IOWA

CITY           SKY/WX    TMP DP  RH WIND       PRES   REMARKS
CARROLL *      CLOUDY    68  64  88 SE9       29.82F
DENISON *      MOCLDY    68  66  94 VRB7G15   29.79S
LE MARS *      CLEAR     70  68  94 S3        29.79S
ORANGE CITY *  CLOUDY    70  66  88 S5        29.80S
SHELDON *      CLOUDY    68  66  94 S8        29.79S
SIOUX CITY     MOCLDY    71  69  93 CALM      29.77S
SPENCER        PTCLDY    67  65  93 S8        29.80F
STORM LAKE *   CLEAR     68  68 100 S8G15     29.81F
$$

IAZ055>058-069>071-079>083-090>094-291200-
   SOUTHWEST IOWA

CITY           SKY/WX    TMP DP  RH WIND       PRES   REMARKS
ATLANTIC *     PTCLDY    66  66 100 CALM      29.82S
AUDUBON *      CLEAR     68  66  94 SE6       29.84F
CLARINDA *     CLEAR     70  70 100 CALM      29.84R
COUNCIL BLFS * PTCLDY    70  70 100 SE7       29.79F FOG
CRESTON *      CLOUDY    68  68 100 SE9       29.84F FOG
HARLAN  *      CLOUDY    66  66 100 SE6       29.85S
RED OAK *      CLEAR     70  68  94 CALM      29.81F
SHENANDOAH *     N/A     70  68  94 SE7       29.82R
$$

IAZ047>049-059>061-072>074-084-291200-
   CENTRAL IOWA

CITY           SKY/WX    TMP DP  RH WIND       PRES   REMARKS
AMES           PTCLDY    66  66 100 CALM      29.86S
ANKENY *       CLEAR     66  66 100 CALM      29.85S
CHARITON *     CLEAR     70  68  94 SE8       29.86F FOG
DES MOINES     MOCLDY    69  65  86 SE8       29.84F
GRINNELL*      CLEAR     66  64  94 SE5       29.89R
KNOXVILLE *    CLEAR     68  66  94 SE8       29.85F FOG
MARSHALLTOWN   MOCLDY    66  65  96 SE7       29.86S
PELLA *        CLEAR     68  68 100 SE6       29.88S FOG
PERRY *          N/A     66  66 100 E3        29.85F FOG
$$

IAZ004>006-015-016-023>025-035-036-291200-
   NORTH CENTRAL IOWA

CITY           SKY/WX    TMP DP  RH WIND       PRES   REMARKS
ALGONA *       LGT RAIN  68  66  94 S15G26    29.81F
CLARION *      HVY RAIN  68  66  94 S8        29.85F
ESTHERVILLE    MOCLDY    66  65  96 S12       29.80F
FORT DODGE *   CLOUDY    66  64  94 SE5       29.83F
MASON CITY     CLOUDY    68  66  93 S10       29.86S
FOREST CITY *  LGT RAIN  68  68 100 S14       29.84S
IOWA FALLS *   MOCLDY    66  64  94 S3        29.89S
$$

IAZ007>011-017>019-026>030-037>042-050>054-066-291200-
   NORTHEAST IOWA

CITY           SKY/WX    TMP DP  RH WIND       PRES   REMARKS
CEDAR RAPIDS   PTCLDY    68  68 100 SE8       29.89F
CHARLES CITY * CLOUDY    68  68 100 S8        29.87S FOG
CLINTON *      PTCLDY    66  64  94 SE6       29.94S
DECORAH *      PTCLDY    68  66  94 SE3       29.89S FOG
DUBUQUE        CLOUDY    68  67  96 S3        29.94S FOG
MONTICELLO *   MOCLDY    68  68 100 E6        29.91F FOG
OELWEIN *      FOG       66  66 100 S5        29.89S VSB 1/4
WATERLOO       MOCLDY    65  64  97 CALM      29.86F
$$

IAZ064-065-067-068-078-291200-
   EAST CENTRAL IOWA

CITY           SKY/WX    TMP DP  RH WIND       PRES   REMARKS
DAVENPORT      PTCLDY    71  66  84 S10       29.92S
IOWA CITY      CLOUDY    70  69  97 SE5       29.91F
MT. PLEASANT * CLEAR     70  68  94 SE6       29.90S FOG
MUSCATINE *    MOCLDY    70  68  94 CALM      29.92R
QUAD CITIES    PTCLDY    71  67  87 S12       29.91S
$$

IAZ062-063-075>077-085>089-095>099-291200-
   SOUTHEAST IOWA

CITY           SKY/WX    TMP DP  RH WIND       PRES   REMARKS
BURLINGTON     MOCLDY    72  69  90 S12       29.91S
FAIRFIELD *    PTCLDY    70  66  88 SE7       29.89F
FORT MADISON * CLEAR     72  72 100 S8        29.91F FOG
KEOKUK *       CLEAR     72  70  94 SE7       29.90S
OSKALOOSA *      N/A     68  66  94 SE6       29.88S FOG
CENTERVILLE *  PTCLDY    68  68 100 SE3       29.89S
OTTUMWA        PTCLDY    67  66  97 SE6       29.88F FOG
WASHINGTON *   PTCLDY    68  68 100 SE6       29.90F FOG
$$

ABBREVIATIONS USED IN REMARKS
   TC - TEMPERATURES IN CELSIUS
  WCI - WIND CHILL INDEX
   HX - HEAT INDEX
  VSB - VISIBILITY
$$



USA.gov is the U.S. government's official web portal to all federal, state and local government web resources and services.